contact:dominique.lefevre@mio.osupytheas.fr, maurice.libes@osupytheas.fr, didier.mallarino@osupytheas.fr
Project:EMSO http://www.emso-fr.org/EMSO-France
Depth: 2436.0 m
Title:EMSO Ligure Ouest : Data MII capteur CSTAR
DateTime,Latitude,Longitude,Instrument_Serial,Reference_Counts,Signal_Counts,Corrected_Signal_raw_counts,Calculated_Beam_c_inverse_meters,Internal_thermistor_counts
DateTime,Latitude,Longitude,Instrument_Serial,Reference_Counts,Signal_Counts,Corrected_Signal_raw_counts,Calculated_Beam_c_inverse_meters,Internal_thermistor_counts
2020-08-12T00:01:28,42.805,6.029,CST-1368DR,5977,8370,15105,0.133,551
2020-08-12T00:04:30,42.805,6.029,CST-1368DR,5977,8370,15105,0.133,551
2020-08-12T00:07:31,42.805,6.029,CST-1368DR,5977,8369,15103,0.134,551
2020-08-12T00:10:33,42.805,6.029,CST-1368DR,5977,8370,15105,0.133,551
2020-08-12T00:13:35,42.805,6.029,CST-1368DR,5977,8369,15104,0.133,551
2020-08-12T00:16:36,42.805,6.029,CST-1368DR,5977,8370,15106,0.133,551
2020-08-12T00:19:38,42.805,6.029,CST-1368DR,5977,8370,15106,0.133,551
2020-08-12T00:22:40,42.805,6.029,CST-1368DR,5977,8370,15105,0.133,550
2020-08-12T00:25:42,42.805,6.029,CST-1368DR,5977,8370,15105,0.133,551
2020-08-12T00:28:43,42.805,6.029,CST-1368DR,5977,8370,15106,0.133,551
2020-08-12T00:31:45,42.805,6.029,CST-1368DR,5977,8370,15106,0.133,551
2020-08-12T00:34:47,42.805,6.029,CST-1368DR,5977,8370,15105,0.133,551
2020-08-12T00:37:48,42.805,6.029,CST-1368DR,5977,8370,15105,0.133,551
2020-08-12T00:40:50,42.805,6.029,CST-1368DR,5977,8370,15105,0.133,551
2020-08-12T00:43:52,42.805,6.029,CST-1368DR,5977,8370,15106,0.133,551
2020-08-12T00:46:53,42.805,6.029,CST-1368DR,5977,8367,15100,0.134,551
2020-08-12T00:49:55,42.805,6.029,CST-1368DR,5977,8370,15106,0.133,551
2020-08-12T00:52:57,42.805,6.029,CST-1368DR,5977,8370,15105,0.133,551
2020-08-12T00:55:59,42.805,6.029,CST-1368DR,5977,8371,15107,0.133,551
2020-08-12T00:59:00,42.805,6.029,CST-1368DR,5977,8370,15106,0.133,551
2020-08-12T01:02:02,42.805,6.029,CST-1368DR,5977,8370,15105,0.133,551
2020-08-12T01:05:04,42.805,6.029,CST-1368DR,5976,8370,15108,0.132,550
2020-08-12T01:08:06,42.805,6.029,CST-1368DR,5977,8369,15103,0.134,551
2020-08-12T01:11:07,42.805,6.029,CST-1368DR,5977,8370,15105,0.133,551
2020-08-12T01:14:09,42.805,6.029,CST-1368DR,5977,8368,15102,0.134,551
2020-08-12T01:17:11,42.805,6.029,CST-1368DR,5977,8369,15103,0.134,551
2020-08-12T01:20:12,42.805,6.029,CST-1368DR,5976,8370,15107,0.133,551
2020-08-12T01:23:14,42.805,6.029,CST-1368DR,5977,8369,15104,0.133,551
2020-08-12T01:26:16,42.805,6.029,CST-1368DR,5976,8368,15105,0.133,551
2020-08-12T01:29:17,42.805,6.029,CST-1368DR,5977,8369,15104,0.133,551
2020-08-12T01:32:19,42.805,6.029,CST-1368DR,5976,8370,15109,0.132,551
2020-08-12T01:35:21,42.805,6.029,CST-1368DR,5976,8370,15107,0.133,551
2020-08-12T01:38:22,42.805,6.029,CST-1368DR,5976,8370,15108,0.132,551
2020-08-12T01:41:24,42.805,6.029,CST-1368DR,5976,8370,15108,0.132,551
2020-08-12T01:44:26,42.805,6.029,CST-1368DR,5976,8370,15108,0.132,551
2020-08-12T01:47:27,42.805,6.029,CST-1368DR,5976,8367,15103,0.134,551
2020-08-12T01:50:29,42.805,6.029,CST-1368DR,5976,8370,15107,0.133,551
2020-08-12T01:53:31,42.805,6.029,CST-1368DR,5976,8368,15105,0.133,551
2020-08-12T01:56:32,42.805,6.029,CST-1368DR,5976,8370,15107,0.133,551
2020-08-12T01:59:34,42.805,6.029,CST-1368DR,5976,8369,15105,0.133,551
2020-08-12T02:02:36,42.805,6.029,CST-1368DR,5976,8369,15106,0.133,551
2020-08-12T02:05:38,42.805,6.029,CST-1368DR,5976,8370,15108,0.132,551
2020-08-12T02:08:39,42.805,6.029,CST-1368DR,5976,8370,15108,0.132,551
2020-08-12T02:11:41,42.805,6.029,CST-1368DR,5976,8370,15107,0.133,551
2020-08-12T02:14:43,42.805,6.029,CST-1368DR,5976,8369,15106,0.133,551
2020-08-12T02:17:44,42.805,6.029,CST-1368DR,5976,8370,15108,0.132,551
2020-08-12T02:20:46,42.805,6.029,CST-1368DR,5976,8369,15106,0.133,551
2020-08-12T02:23:48,42.805,6.029,CST-1368DR,5976,8370,15108,0.132,551
2020-08-12T02:26:49,42.805,6.029,CST-1368DR,5976,8369,15105,0.133,551
2020-08-12T02:29:51,42.805,6.029,CST-1368DR,5976,8368,15104,0.133,551
2020-08-12T02:32:53,42.805,6.029,CST-1368DR,5976,8369,15105,0.133,551
2020-08-12T02:35:54,42.805,6.029,CST-1368DR,5976,8370,15108,0.132,551
2020-08-12T02:38:56,42.805,6.029,CST-1368DR,5976,8370,15108,0.132,551
2020-08-12T02:41:58,42.805,6.029,CST-1368DR,5976,8370,15108,0.132,551
2020-08-12T02:45:00,42.805,6.029,CST-1368DR,5976,8370,15108,0.132,551
2020-08-12T02:48:02,42.805,6.029,CST-1368DR,5976,8369,15106,0.133,551
2020-08-12T02:51:03,42.805,6.029,CST-1368DR,5976,8369,15106,0.133,551
2020-08-12T02:54:05,42.805,6.029,CST-1368DR,5976,8369,15106,0.133,551
2020-08-12T02:57:07,42.805,6.029,CST-1368DR,5976,8369,15106,0.133,551
2020-08-12T03:00:08,42.805,6.029,CST-1368DR,5976,8370,15108,0.132,551
2020-08-12T03:03:10,42.805,6.029,CST-1368DR,5976,8369,15106,0.133,551
2020-08-12T03:06:12,42.805,6.029,CST-1368DR,5976,8370,15107,0.133,551
2020-08-12T03:09:14,42.805,6.029,CST-1368DR,5976,8369,15106,0.133,551
2020-08-12T03:12:15,42.805,6.029,CST-1368DR,5976,8369,15106,0.133,551
2020-08-12T03:15:17,42.805,6.029,CST-1368DR,5976,8370,15108,0.132,551
2020-08-12T03:18:19,42.805,6.029,CST-1368DR,5976,8370,15107,0.133,551
2020-08-12T03:21:20,42.805,6.029,CST-1368DR,5976,8370,15108,0.132,551
2020-08-12T03:24:22,42.805,6.029,CST-1368DR,5976,8368,15104,0.133,551
2020-08-12T03:27:24,42.805,6.029,CST-1368DR,5976,8369,15106,0.133,551
2020-08-12T03:30:25,42.805,6.029,CST-1368DR,5976,8368,15105,0.133,551
2020-08-12T03:33:27,42.805,6.029,CST-1368DR,5976,8369,15106,0.133,551
2020-08-12T03:36:29,42.805,6.029,CST-1368DR,5976,8369,15105,0.133,551
2020-08-12T03:39:31,42.805,6.029,CST-1368DR,5976,8369,15106,0.133,551
2020-08-12T03:42:32,42.805,6.029,CST-1368DR,5976,8369,15106,0.133,551
2020-08-12T03:45:34,42.805,6.029,CST-1368DR,5976,8368,15105,0.133,551
2020-08-12T03:48:36,42.805,6.029,CST-1368DR,5976,8369,15106,0.133,551
2020-08-12T03:51:37,42.805,6.029,CST-1368DR,5976,8368,15104,0.133,551
2020-08-12T03:54:39,42.805,6.029,CST-1368DR,5976,8370,15107,0.133,551
2020-08-12T03:57:41,42.805,6.029,CST-1368DR,5976,8368,15105,0.133,551
2020-08-12T04:00:42,42.805,6.029,CST-1368DR,5976,8369,15106,0.133,551
2020-08-12T04:03:44,42.805,6.029,CST-1368DR,5976,8369,15105,0.133,551
2020-08-12T04:06:46,42.805,6.029,CST-1368DR,5976,8369,15106,0.133,551
2020-08-12T04:09:47,42.805,6.029,CST-1368DR,5976,8368,15104,0.133,551
2020-08-12T04:12:49,42.805,6.029,CST-1368DR,5976,8368,15105,0.133,551
2020-08-12T04:15:51,42.805,6.029,CST-1368DR,5976,8369,15105,0.133,551
2020-08-12T04:18:52,42.805,6.029,CST-1368DR,5976,8369,15105,0.133,551
2020-08-12T04:21:54,42.805,6.029,CST-1368DR,5976,8369,15105,0.133,551
2020-08-12T04:24:56,42.805,6.029,CST-1368DR,5976,8370,15107,0.133,551
2020-08-12T04:27:57,42.805,6.029,CST-1368DR,5976,8369,15106,0.133,551
2020-08-12T04:30:59,42.805,6.029,CST-1368DR,5976,8369,15106,0.133,551
2020-08-12T04:34:01,42.805,6.029,CST-1368DR,5976,8368,15104,0.133,551
2020-08-12T04:37:02,42.805,6.029,CST-1368DR,5976,8368,15104,0.133,551
2020-08-12T04:40:04,42.805,6.029,CST-1368DR,5976,8369,15105,0.133,551
2020-08-12T04:43:06,42.805,6.029,CST-1368DR,5976,8369,15106,0.133,551
2020-08-12T04:46:07,42.805,6.029,CST-1368DR,5976,8369,15106,0.133,551
2020-08-12T04:49:09,42.805,6.029,CST-1368DR,5976,8369,15105,0.133,551
2020-08-12T04:52:11,42.805,6.029,CST-1368DR,5976,8368,15105,0.133,551
2020-08-12T04:55:13,42.805,6.029,CST-1368DR,5976,8368,15104,0.133,551
2020-08-12T04:58:14,42.805,6.029,CST-1368DR,5976,8369,15106,0.133,551
2020-08-12T05:01:16,42.805,6.029,CST-1368DR,5976,8369,15105,0.133,551
2020-08-12T05:04:18,42.805,6.029,CST-1368DR,5976,8368,15104,0.133,551
2020-08-12T05:07:19,42.805,6.029,CST-1368DR,5976,8368,15104,0.133,551
2020-08-12T05:10:21,42.805,6.029,CST-1368DR,5976,8368,15105,0.133,551
2020-08-12T05:13:23,42.805,6.029,CST-1368DR,5976,8369,15105,0.133,551
2020-08-12T05:16:24,42.805,6.029,CST-1368DR,5976,8362,15094,0.136,551
2020-08-12T05:19:26,42.805,6.029,CST-1368DR,5976,8368,15104,0.133,551
2020-08-12T05:22:28,42.805,6.029,CST-1368DR,5976,8369,15106,0.133,551
2020-08-12T05:25:29,42.805,6.029,CST-1368DR,5976,8368,15105,0.133,551
2020-08-12T05:28:31,42.805,6.029,CST-1368DR,5976,8368,15104,0.133,551
2020-08-12T05:31:33,42.805,6.029,CST-1368DR,5976,8370,15107,0.133,551
2020-08-12T05:34:34,42.805,6.029,CST-1368DR,5976,8369,15106,0.133,551
2020-08-12T05:37:36,42.805,6.029,CST-1368DR,5976,8370,15107,0.133,551
2020-08-12T05:40:38,42.805,6.029,CST-1368DR,5976,8367,15103,0.134,551
2020-08-12T05:43:40,42.805,6.029,CST-1368DR,5976,8368,15104,0.133,551
2020-08-12T05:46:41,42.805,6.029,CST-1368DR,5976,8369,15106,0.133,551
2020-08-12T05:49:43,42.805,6.029,CST-1368DR,5976,8369,15105,0.133,551
2020-08-12T05:52:45,42.805,6.029,CST-1368DR,5976,8369,15106,0.133,551
2020-08-12T05:55:46,42.805,6.029,CST-1368DR,5976,8368,15104,0.133,551
2020-08-12T05:58:48,42.805,6.029,CST-1368DR,5976,8369,15105,0.133,551
2020-08-12T06:01:50,42.805,6.029,CST-1368DR,5976,8368,15105,0.133,551
2020-08-12T06:04:51,42.805,6.029,CST-1368DR,5976,8367,15103,0.134,551
2020-08-12T06:07:53,42.805,6.029,CST-1368DR,5976,8368,15104,0.133,551
2020-08-12T06:10:55,42.805,6.029,CST-1368DR,5976,8368,15105,0.133,551
2020-08-12T06:13:56,42.805,6.029,CST-1368DR,5976,8368,15104,0.133,550
2020-08-12T06:16:58,42.805,6.029,CST-1368DR,5976,8369,15106,0.133,551
2020-08-12T06:20:00,42.805,6.029,CST-1368DR,5976,8369,15105,0.133,551
2020-08-12T06:23:01,42.805,6.029,CST-1368DR,5976,8368,15105,0.133,551
2020-08-12T06:26:03,42.805,6.029,CST-1368DR,5976,8368,15104,0.133,551
2020-08-12T06:29:05,42.805,6.029,CST-1368DR,5976,8369,15105,0.133,551
2020-08-12T06:32:06,42.805,6.029,CST-1368DR,5976,8369,15106,0.133,551
2020-08-12T06:35:08,42.805,6.029,CST-1368DR,5976,8369,15106,0.133,551
2020-08-12T06:38:10,42.805,6.029,CST-1368DR,5976,8368,15104,0.133,551
2020-08-12T06:41:12,42.805,6.029,CST-1368DR,5976,8369,15106,0.133,551
2020-08-12T06:44:13,42.805,6.029,CST-1368DR,5976,8369,15106,0.133,551
2020-08-12T06:47:15,42.805,6.029,CST-1368DR,5976,8369,15106,0.133,551
2020-08-12T06:50:17,42.805,6.029,CST-1368DR,5976,8369,15106,0.133,551
2020-08-12T06:53:18,42.805,6.029,CST-1368DR,5976,8369,15106,0.133,551
2020-08-12T06:56:20,42.805,6.029,CST-1368DR,5976,8368,15104,0.133,551
2020-08-12T06:59:22,42.805,6.029,CST-1368DR,5976,8367,15103,0.134,551
2020-08-12T07:02:23,42.805,6.029,CST-1368DR,5976,8368,15105,0.133,551
2020-08-12T07:05:25,42.805,6.029,CST-1368DR,5976,8369,15105,0.133,551
2020-08-12T07:08:27,42.805,6.029,CST-1368DR,5976,8368,15104,0.133,551
2020-08-12T07:11:28,42.805,6.029,CST-1368DR,5976,8368,15105,0.133,551
2020-08-12T07:14:30,42.805,6.029,CST-1368DR,5976,8368,15104,0.133,551
2020-08-12T07:17:32,42.805,6.029,CST-1368DR,5976,8368,15104,0.133,551
2020-08-12T07:20:34,42.805,6.029,CST-1368DR,5976,8369,15105,0.133,551
2020-08-12T07:23:36,42.805,6.029,CST-1368DR,5976,8368,15105,0.133,551
2020-08-12T07:26:37,42.805,6.029,CST-1368DR,5976,8368,15105,0.133,551
2020-08-12T07:29:39,42.805,6.029,CST-1368DR,5976,8368,15105,0.133,551
2020-08-12T07:32:41,42.805,6.029,CST-1368DR,5976,8369,15106,0.133,551
2020-08-12T07:35:42,42.805,6.029,CST-1368DR,5976,8368,15105,0.133,551
2020-08-12T07:38:44,42.805,6.029,CST-1368DR,5976,8369,15105,0.133,551
2020-08-12T07:41:46,42.805,6.029,CST-1368DR,5976,8369,15105,0.133,551
2020-08-12T07:44:47,42.805,6.029,CST-1368DR,5976,8369,15105,0.133,551
2020-08-12T07:47:49,42.805,6.029,CST-1368DR,5976,8368,15105,0.133,551
2020-08-12T07:50:51,42.805,6.029,CST-1368DR,5976,8369,15105,0.133,551
2020-08-12T07:53:52,42.805,6.029,CST-1368DR,5976,8368,15105,0.133,551
2020-08-12T07:56:54,42.805,6.029,CST-1368DR,5976,8368,15104,0.133,551
2020-08-12T07:59:56,42.805,6.029,CST-1368DR,5976,8368,15104,0.133,551
2020-08-12T08:02:58,42.805,6.029,CST-1368DR,5976,8368,15105,0.133,551
2020-08-12T08:05:59,42.805,6.029,CST-1368DR,5976,8368,15104,0.133,551
2020-08-12T08:09:01,42.805,6.029,CST-1368DR,5976,8368,15105,0.133,551
2020-08-12T08:12:03,42.805,6.029,CST-1368DR,5975,8368,15106,0.133,551
2020-08-12T08:15:04,42.805,6.029,CST-1368DR,5976,8368,15104,0.133,550
2020-08-12T08:18:06,42.805,6.029,CST-1368DR,5975,8368,15107,0.133,551
2020-08-12T08:21:08,42.805,6.029,CST-1368DR,5976,8368,15104,0.133,551
2020-08-12T08:24:09,42.805,6.029,CST-1368DR,5976,8368,15105,0.133,551
2020-08-12T08:27:11,42.805,6.029,CST-1368DR,5975,8368,15107,0.133,551
2020-08-12T08:30:13,42.805,6.029,CST-1368DR,5976,8368,15104,0.133,551
2020-08-12T08:33:14,42.805,6.029,CST-1368DR,5976,8368,15104,0.133,551
2020-08-12T08:36:16,42.805,6.029,CST-1368DR,5976,8368,15104,0.133,551
2020-08-12T08:39:18,42.805,6.029,CST-1368DR,5976,8368,15105,0.133,551
2020-08-12T08:42:19,42.805,6.029,CST-1368DR,5976,8367,15103,0.134,551
2020-08-12T08:45:21,42.805,6.029,CST-1368DR,5976,8367,15102,0.134,551
2020-08-12T08:48:23,42.805,6.029,CST-1368DR,5976,8367,15103,0.134,551
2020-08-12T08:51:25,42.805,6.029,CST-1368DR,5976,8368,15105,0.133,551
2020-08-12T08:54:26,42.805,6.029,CST-1368DR,5975,8368,15107,0.133,551
2020-08-12T08:57:28,42.805,6.029,CST-1368DR,5976,8365,15099,0.135,551
2020-08-12T09:00:30,42.805,6.029,CST-1368DR,5976,8368,15105,0.133,551
2020-08-12T09:03:31,42.805,6.029,CST-1368DR,5976,8368,15105,0.133,551
2020-08-12T09:06:33,42.805,6.029,CST-1368DR,5976,8368,15104,0.133,551
2020-08-12T09:09:35,42.805,6.029,CST-1368DR,5975,8366,15102,0.134,551
2020-08-12T09:12:36,42.805,6.029,CST-1368DR,5976,8368,15105,0.133,551
2020-08-12T09:15:38,42.805,6.029,CST-1368DR,5975,8366,15102,0.134,551
2020-08-12T09:18:40,42.805,6.029,CST-1368DR,5975,8368,15106,0.133,551
2020-08-12T09:21:41,42.805,6.029,CST-1368DR,5976,8368,15104,0.133,551
2020-08-12T09:24:43,42.805,6.029,CST-1368DR,5975,8368,15107,0.133,551
2020-08-12T09:27:45,42.805,6.029,CST-1368DR,5975,8368,15107,0.133,551
2020-08-12T09:30:47,42.805,6.029,CST-1368DR,5975,8368,15106,0.133,551
2020-08-12T09:33:48,42.805,6.029,CST-1368DR,5975,8368,15106,0.133,551
2020-08-12T09:36:50,42.805,6.029,CST-1368DR,5975,8368,15107,0.133,551
2020-08-12T09:39:52,42.805,6.029,CST-1368DR,5975,8369,15108,0.132,551
2020-08-12T09:42:53,42.805,6.029,CST-1368DR,5975,8368,15106,0.133,551
2020-08-12T09:45:55,42.805,6.029,CST-1368DR,5975,8368,15107,0.133,551
2020-08-12T09:48:57,42.805,6.029,CST-1368DR,5975,8367,15105,0.133,551
2020-08-12T09:51:59,42.805,6.029,CST-1368DR,5975,8368,15106,0.133,551
2020-08-12T09:55:00,42.805,6.029,CST-1368DR,5975,8367,15105,0.133,551
2020-08-12T09:58:02,42.805,6.029,CST-1368DR,5975,8367,15105,0.133,551
2020-08-12T10:01:04,42.805,6.029,CST-1368DR,5975,8368,15107,0.133,551
2020-08-12T10:04:05,42.805,6.029,CST-1368DR,5975,8368,15107,0.133,551
2020-08-12T10:07:07,42.805,6.029,CST-1368DR,5975,8369,15108,0.132,550
2020-08-12T10:10:09,42.805,6.029,CST-1368DR,5975,8369,15108,0.132,550
2020-08-12T10:13:11,42.805,6.029,CST-1368DR,5975,8368,15106,0.133,551
2020-08-12T10:16:13,42.805,6.029,CST-1368DR,5975,8367,15105,0.133,550
2020-08-12T10:19:14,42.805,6.029,CST-1368DR,5975,8368,15107,0.133,551
2020-08-12T10:22:16,42.805,6.029,CST-1368DR,5975,8368,15107,0.133,551
2020-08-12T10:25:18,42.805,6.029,CST-1368DR,5975,8368,15107,0.133,551
2020-08-12T10:28:19,42.805,6.029,CST-1368DR,5975,8367,15105,0.133,551
2020-08-12T10:31:21,42.805,6.029,CST-1368DR,5975,8367,15105,0.133,551
2020-08-12T10:34:23,42.805,6.029,CST-1368DR,5975,8368,15106,0.133,551
2020-08-12T10:37:24,42.805,6.029,CST-1368DR,5975,8368,15107,0.133,551
2020-08-12T10:40:26,42.805,6.029,CST-1368DR,5975,8368,15106,0.133,551
2020-08-12T10:43:28,42.805,6.029,CST-1368DR,5975,8368,15106,0.133,551
2020-08-12T10:46:29,42.805,6.029,CST-1368DR,5975,8368,15106,0.133,551
2020-08-12T10:49:31,42.805,6.029,CST-1368DR,5975,8368,15107,0.133,551
2020-08-12T10:52:33,42.805,6.029,CST-1368DR,5975,8368,15107,0.133,551
2020-08-12T10:55:35,42.805,6.029,CST-1368DR,5975,8368,15106,0.133,551
2020-08-12T10:58:36,42.805,6.029,CST-1368DR,5975,8367,15105,0.133,551
2020-08-12T11:01:38,42.805,6.029,CST-1368DR,5975,8366,15103,0.134,551
2020-08-12T11:04:40,42.805,6.029,CST-1368DR,5975,8367,15104,0.133,551
2020-08-12T11:07:42,42.805,6.029,CST-1368DR,5975,8367,15105,0.133,551
2020-08-12T11:10:43,42.805,6.029,CST-1368DR,5975,8368,15106,0.133,551
2020-08-12T11:13:45,42.805,6.029,CST-1368DR,5975,8368,15106,0.133,551
2020-08-12T11:16:47,42.805,6.029,CST-1368DR,5975,8367,15105,0.133,551
2020-08-12T11:19:48,42.805,6.029,CST-1368DR,5975,8367,15105,0.133,551
2020-08-12T11:22:50,42.805,6.029,CST-1368DR,5975,8368,15106,0.133,551
2020-08-12T11:25:52,42.805,6.029,CST-1368DR,5975,8367,15105,0.133,551
2020-08-12T11:28:54,42.805,6.029,CST-1368DR,5975,8368,15106,0.133,550
2020-08-12T11:31:55,42.805,6.029,CST-1368DR,5975,8367,15105,0.133,551
2020-08-12T11:34:57,42.805,6.029,CST-1368DR,5975,8367,15105,0.133,551
2020-08-12T11:37:59,42.805,6.029,CST-1368DR,5975,8368,15106,0.133,551
2020-08-12T11:41:00,42.805,6.029,CST-1368DR,5975,8367,15105,0.133,551
2020-08-12T11:44:02,42.805,6.029,CST-1368DR,5975,8367,15105,0.133,551
2020-08-12T11:47:04,42.805,6.029,CST-1368DR,5975,8368,15107,0.133,551
2020-08-12T11:50:06,42.805,6.029,CST-1368DR,5975,8368,15106,0.133,551
2020-08-12T11:53:07,42.805,6.029,CST-1368DR,5975,8367,15105,0.133,551
2020-08-12T11:56:09,42.805,6.029,CST-1368DR,5975,8367,15105,0.133,551
2020-08-12T11:59:11,42.805,6.029,CST-1368DR,5975,8368,15107,0.133,551
2020-08-12T12:02:13,42.805,6.029,CST-1368DR,5975,8368,15106,0.133,551
2020-08-12T12:05:14,42.805,6.029,CST-1368DR,5975,8368,15106,0.133,551
2020-08-12T12:08:16,42.805,6.029,CST-1368DR,5975,8368,15106,0.133,551
2020-08-12T12:11:18,42.805,6.029,CST-1368DR,5975,8368,15106,0.133,551
2020-08-12T12:14:19,42.805,6.029,CST-1368DR,5975,8367,15105,0.133,551
2020-08-12T12:17:21,42.805,6.029,CST-1368DR,5975,8368,15106,0.133,551
2020-08-12T12:20:23,42.805,6.029,CST-1368DR,5975,8368,15106,0.133,551
2020-08-12T12:23:25,42.805,6.029,CST-1368DR,5975,8368,15106,0.133,551
2020-08-12T12:26:26,42.805,6.029,CST-1368DR,5975,8368,15107,0.133,551
2020-08-12T12:29:28,42.805,6.029,CST-1368DR,5975,8367,15105,0.133,551
2020-08-12T12:32:30,42.805,6.029,CST-1368DR,5975,8367,15105,0.133,551
2020-08-12T12:35:31,42.805,6.029,CST-1368DR,5975,8368,15106,0.133,551
2020-08-12T12:38:33,42.805,6.029,CST-1368DR,5975,8368,15107,0.133,551
2020-08-12T12:41:35,42.805,6.029,CST-1368DR,5975,8367,15105,0.133,551
2020-08-12T12:44:36,42.805,6.029,CST-1368DR,5975,8368,15106,0.133,551
2020-08-12T12:47:38,42.805,6.029,CST-1368DR,5975,8368,15106,0.133,551
2020-08-12T12:50:40,42.805,6.029,CST-1368DR,5975,8367,15105,0.133,551
2020-08-12T12:53:42,42.805,6.029,CST-1368DR,5975,8368,15107,0.133,551
2020-08-12T12:56:43,42.805,6.029,CST-1368DR,5975,8367,15105,0.133,551
2020-08-12T12:59:45,42.805,6.029,CST-1368DR,5975,8368,15106,0.133,551
2020-08-12T13:02:47,42.805,6.029,CST-1368DR,5975,8367,15105,0.133,551
2020-08-12T13:05:48,42.805,6.029,CST-1368DR,5975,8367,15105,0.133,551
2020-08-12T13:08:50,42.805,6.029,CST-1368DR,5975,8367,15104,0.133,551
2020-08-12T13:11:52,42.805,6.029,CST-1368DR,5975,8367,15105,0.133,551
2020-08-12T13:14:53,42.805,6.029,CST-1368DR,5975,8367,15105,0.133,551
2020-08-12T13:17:55,42.805,6.029,CST-1368DR,5975,8367,15105,0.133,551
2020-08-12T13:20:57,42.805,6.029,CST-1368DR,5975,8368,15106,0.133,551
2020-08-12T13:23:59,42.805,6.029,CST-1368DR,5975,8366,15104,0.133,551
2020-08-12T13:27:00,42.805,6.029,CST-1368DR,5975,8367,15105,0.133,551
2020-08-12T13:30:02,42.805,6.029,CST-1368DR,5975,8367,15105,0.133,551
2020-08-12T13:33:04,42.805,6.029,CST-1368DR,5975,8366,15104,0.133,551
2020-08-12T13:36:06,42.805,6.029,CST-1368DR,5975,8367,15105,0.133,551
2020-08-12T13:39:07,42.805,6.029,CST-1368DR,5975,8368,15107,0.133,550
2020-08-12T13:42:09,42.805,6.029,CST-1368DR,5975,8368,15106,0.133,551
2020-08-12T13:45:11,42.805,6.029,CST-1368DR,5975,8366,15102,0.134,551
2020-08-12T13:48:12,42.805,6.029,CST-1368DR,5975,8368,15106,0.133,550
2020-08-12T13:51:14,42.805,6.029,CST-1368DR,5975,8366,15104,0.133,551
2020-08-12T13:54:16,42.805,6.029,CST-1368DR,5975,8367,15105,0.133,551
2020-08-12T13:57:17,42.805,6.029,CST-1368DR,5975,8368,15106,0.133,551
2020-08-12T14:00:19,42.805,6.029,CST-1368DR,5975,8368,15106,0.133,551
2020-08-12T14:03:21,42.805,6.029,CST-1368DR,5975,8368,15106,0.133,551
2020-08-12T14:06:22,42.805,6.029,CST-1368DR,5975,8367,15105,0.133,551
2020-08-12T14:09:24,42.805,6.029,CST-1368DR,5975,8367,15105,0.133,551
2020-08-12T14:12:26,42.805,6.029,CST-1368DR,5975,8367,15104,0.133,551
2020-08-12T14:15:27,42.805,6.029,CST-1368DR,5975,8368,15106,0.133,551
2020-08-12T14:18:29,42.805,6.029,CST-1368DR,5975,8368,15106,0.133,551
2020-08-12T14:21:31,42.805,6.029,CST-1368DR,5975,8368,15106,0.133,551
2020-08-12T14:24:33,42.805,6.029,CST-1368DR,5975,8367,15104,0.133,551
2020-08-12T14:27:34,42.805,6.029,CST-1368DR,5975,8367,15105,0.133,551
2020-08-12T14:30:36,42.805,6.029,CST-1368DR,5975,8367,15105,0.133,551
2020-08-12T14:33:38,42.805,6.029,CST-1368DR,5975,8367,15105,0.133,551
2020-08-12T14:36:40,42.805,6.029,CST-1368DR,5975,8367,15105,0.133,551
2020-08-12T14:39:41,42.805,6.029,CST-1368DR,5975,8367,15105,0.133,551
2020-08-12T14:42:43,42.805,6.029,CST-1368DR,5975,8367,15105,0.133,551
2020-08-12T14:45:45,42.805,6.029,CST-1368DR,5975,8367,15105,0.133,551
2020-08-12T14:48:46,42.805,6.029,CST-1368DR,5975,8367,15105,0.133,551
2020-08-12T14:51:48,42.805,6.029,CST-1368DR,5975,8367,15105,0.133,551
2020-08-12T14:54:50,42.805,6.029,CST-1368DR,5975,8367,15104,0.133,551
2020-08-12T14:57:52,42.805,6.029,CST-1368DR,5975,8368,15106,0.133,551
2020-08-12T15:00:53,42.805,6.029,CST-1368DR,5975,8366,15102,0.134,551
2020-08-12T15:03:55,42.805,6.029,CST-1368DR,5975,8367,15105,0.133,551
2020-08-12T15:06:57,42.805,6.029,CST-1368DR,5975,8367,15105,0.133,550
2020-08-12T15:09:58,42.805,6.029,CST-1368DR,5975,8367,15105,0.133,551
2020-08-12T15:13:00,42.805,6.029,CST-1368DR,5975,8367,15105,0.133,551
2020-08-12T15:16:02,42.805,6.029,CST-1368DR,5975,8367,15105,0.133,551
2020-08-12T15:19:03,42.805,6.029,CST-1368DR,5975,8367,15105,0.133,551
2020-08-12T15:22:05,42.805,6.029,CST-1368DR,5975,8368,15106,0.133,551
2020-08-12T15:25:07,42.805,6.029,CST-1368DR,5975,8367,15105,0.133,551
2020-08-12T15:28:08,42.805,6.029,CST-1368DR,5975,8367,15105,0.133,551
2020-08-12T15:31:10,42.805,6.029,CST-1368DR,5975,8366,15104,0.133,551
2020-08-12T15:34:12,42.805,6.029,CST-1368DR,5975,8366,15104,0.133,551
2020-08-12T15:37:13,42.805,6.029,CST-1368DR,5975,8367,15105,0.133,551
2020-08-12T15:40:15,42.805,6.029,CST-1368DR,5975,8367,15104,0.133,551
2020-08-12T15:43:17,42.805,6.029,CST-1368DR,5975,8367,15105,0.133,551
2020-08-12T15:46:18,42.805,6.029,CST-1368DR,5975,8367,15105,0.133,551
2020-08-12T15:49:20,42.805,6.029,CST-1368DR,5975,8367,15105,0.133,551
2020-08-12T15:52:22,42.805,6.029,CST-1368DR,5975,8367,15105,0.133,551
2020-08-12T15:55:24,42.805,6.029,CST-1368DR,5975,8368,15106,0.133,550
2020-08-12T15:58:25,42.805,6.029,CST-1368DR,5975,8367,15105,0.133,551
2020-08-12T16:01:27,42.805,6.029,CST-1368DR,5975,8367,15105,0.133,551
2020-08-12T16:04:29,42.805,6.029,CST-1368DR,5975,8366,15104,0.133,551
2020-08-12T16:07:31,42.805,6.029,CST-1368DR,5974,8366,15105,0.133,551
2020-08-12T16:10:32,42.805,6.029,CST-1368DR,5974,8367,15107,0.133,551
2020-08-12T16:13:34,42.805,6.029,CST-1368DR,5974,8366,15105,0.133,550
2020-08-12T16:16:36,42.805,6.029,CST-1368DR,5974,8365,15104,0.133,551
2020-08-12T16:19:37,42.805,6.029,CST-1368DR,5974,8367,15108,0.132,551
2020-08-12T16:22:39,42.805,6.029,CST-1368DR,5975,8367,15105,0.133,551
2020-08-12T16:25:41,42.805,6.029,CST-1368DR,5975,8367,15104,0.133,551
2020-08-12T16:28:42,42.805,6.029,CST-1368DR,5974,8366,15105,0.133,551
2020-08-12T16:31:44,42.805,6.029,CST-1368DR,5975,8366,15104,0.133,551
2020-08-12T16:34:46,42.805,6.029,CST-1368DR,5974,8366,15106,0.133,551
2020-08-12T16:37:47,42.805,6.029,CST-1368DR,5975,8367,15105,0.133,551
2020-08-12T16:40:49,42.805,6.029,CST-1368DR,5975,8367,15105,0.133,551
2020-08-12T16:43:51,42.805,6.029,CST-1368DR,5975,8366,15102,0.134,551
2020-08-12T16:46:52,42.805,6.029,CST-1368DR,5975,8366,15102,0.134,551
2020-08-12T16:49:54,42.805,6.029,CST-1368DR,5975,8365,15101,0.134,551
2020-08-12T16:52:56,42.805,6.029,CST-1368DR,5974,8366,15106,0.133,551